ASO-S

导读 | 豆包AI

ASO-S,即先进天基太阳天文台,是由中国自主研发的太阳探测科学技术试验卫星,于2022年10月8日发射升空。它搭载多台探测设备,旨在观测太阳耀斑、日冕物质抛射和太阳磁场,探究太阳活动的起源与规律,为空间天气预警提供数据支撑,推动太阳物理领域的科学研究发展。

Basic Information
目录编号:
54029
目录名称:
ASO-S
国际标识:
2022-129A
轨道中心:
EARTH
卫星名称:
ASO-S
卫星全名:
--
卫星状态:
在轨 (已飞行1300 天)
发射日期:
2022-10-08 UTC
国别 :
中国 (CN)
星等 :
--
Orbit Information
数据来源 国际轨道数据 AOE轨道数据
星历时间 2026-04-30T21:39:18+0800
8小时前
查看轨道信息
2026-04-30T08:00:00+0800
22小时前
查看轨道信息
半长轴 7097.136km 7097.146km
偏心率 0.0013171 0.0012306
轨道倾角 98.276° 98.276°
近地点辐角 236.014° 238.326°
升交点赤经 126.331° 125.768°
平近点角 123.980° 29.280°
近地点 709.651km 710.275km
远地点 728.347km 727.743km
周期 99.171分钟 99.171分钟
每日圈数 14.520386 14.520355
Detailed Information
使用方式:
暂无
2D Orbit Map
3D Orbit Map
Orbit Altitude Analysis Chart
Orbit Inclination Analysis Chart
Orbit Comprehensive Analysis Chart
View Comprehensive Chart